• Currently

    Reported at Minneapolis, Minneapolis-St. Paul International Airport, MN
    4:10 AM CST TUE SEP 19 2017
  • 61°F16°C
  • Overcast
    Overcast
  • Feels Like:61°F16°CDew Point:57°F14°CHumidity:88% Winds:SE 8 mph 13 kph
    Pressure:29.91 in1013 hPaVisibility:10.00 miles16090.00 meters
Time Weather Temp Dew Point
Humidity Winds Visibility Pressure Precipitation
1 hr 24 hr
Monday, September 11
23:53 23:53 Mostly Clear Mostly Clear 68°F20°C 57°F14°C 68% SSE 13 mphSSE 20 kph 10.0 miles16.1 km 30.18 in1022 hPa 0.00 in0.00 mm --
22:53 22:53 Mostly Clear Mostly Clear 70°F21°C 58°F14°C 66% S 15 mphS 24 kph 10.0 miles16.1 km 30.18 in1022 hPa 0.00 in0.00 mm --
21:53 21:53 Partly Cloudy Partly Cloudy 71°F22°C 60°F16°C 68% SSE 13 mphSSE 20 kph 10.0 miles16.1 km 30.18 in1022 hPa 0.00 in0.00 mm --
20:53 20:53 Mostly Cloudy Mostly Cloudy 72°F22°C 62°F17°C 71% SSE 13 mphSSE 20 kph 10.0 miles16.1 km 30.18 in1022 hPa 0.00 in0.00 mm --
19:53 19:53 Mostly Cloudy Mostly Cloudy 73°F23°C 64°F18°C 74% SSE 12 mphSSE 19 kph 10.0 miles16.1 km 30.18 in1022 hPa 0.00 in0.03 mm --
18:53 18:53 Mostly Cloudy Mostly Cloudy 76°F24°C 63°F17°C 64% SSE 13 mphSSE 20 kph 10.0 miles16.1 km 30.18 in1022 hPa 0.00 in0.00 mm --
17:53 17:53 Mostly Cloudy Mostly Cloudy 78°F26°C 63°F17°C 60% SSE 12 mphSSE 19 kph 10.0 miles16.1 km 30.18 in1022 hPa 0.00 in0.00 mm --
16:53 16:53 Mostly Cloudy Mostly Cloudy 79°F26°C 63°F17°C 58% SSE 12 mphSSE 19 kph 10.0 miles16.1 km 30.18 in1022 hPa 0.00 in0.00 mm --
15:53 15:53 Partly Cloudy Partly Cloudy 80°F27°C 63°F17°C 56% SSE 17 mphSSE 28 kph 10.0 miles16.1 km 30.21 in1023 hPa 0.00 in0.00 mm --
14:53 14:53 Partly Cloudy Partly Cloudy 79°F26°C 62°F17°C 56% SSE 15 mphSSE 24 kph 10.0 miles16.1 km 30.21 in1023 hPa 0.00 in0.00 mm --
13:53 13:53 Mostly Cloudy Mostly Cloudy 77°F25°C 62°F17°C 60% SSE 15 mphSSE 24 kph 10.0 miles16.1 km 30.24 in1024 hPa 0.00 in0.00 mm --
12:53 12:53 Mostly Cloudy Mostly Cloudy 75°F24°C 60°F16°C 60% SE 13 mphSE 20 kph 10.0 miles16.1 km 30.24 in1024 hPa 0.00 in0.00 mm --
11:53 11:53 Mostly Cloudy Mostly Cloudy 69°F21°C 58°F14°C 68% S 9 mphS 15 kph 10.0 miles16.1 km 30.27 in1025 hPa 0.00 in0.00 mm --
10:53 10:53 Mostly Cloudy Mostly Cloudy 65°F18°C 57°F14°C 76% SE 9 mphSE 15 kph 10.0 miles16.1 km 30.27 in1025 hPa 0.00 in0.00 mm --
09:53 09:53 Mostly Cloudy Mostly Cloudy 63°F17°C 56°F13°C 78% SSE 13 mphSSE 20 kph 10.0 miles16.1 km 30.3 in1026 hPa 0.00 in0.00 mm --
08:53 08:53 Mostly Cloudy Mostly Cloudy 63°F17°C 56°F13°C 78% SE 8 mphSE 13 kph 10.0 miles16.1 km 30.27 in1025 hPa 0.00 in0.00 mm --
07:53 07:53 Cloudy Cloudy 62°F17°C 56°F13°C 80% SSE 10 mphSSE 17 kph 10.0 miles16.1 km 30.3 in1026 hPa 0.00 in0.00 mm --
06:53 06:53 Cloudy Cloudy 62°F17°C 57°F14°C 84% SE 13 mphSE 20 kph 10.0 miles16.1 km 30.27 in1025 hPa 0.00 in0.00 mm --
05:53 05:53 Mostly Cloudy Mostly Cloudy 62°F17°C 57°F14°C 84% SE 8 mphSE 13 kph 10.0 miles16.1 km 30.27 in1025 hPa 0.00 in0.00 mm --
04:53 04:53 Mostly Cloudy Mostly Cloudy 62°F17°C 58°F14°C 86% SSE 10 mphSSE 17 kph 10.0 miles16.1 km 30.27 in1025 hPa 0.00 in0.00 mm --
03:53 03:53 Mostly Clear Mostly Clear 62°F17°C 58°F14°C 86% SSE 9 mphSSE 15 kph 10.0 miles16.1 km 30.27 in1025 hPa 0.00 in0.00 mm --
02:53 02:53 Mostly Clear Mostly Clear 63°F17°C 58°F14°C 84% SE 7 mphSE 11 kph 10.0 miles16.1 km 30.27 in1025 hPa 0.00 in0.00 mm --
01:53 01:53 Mostly Clear Mostly Clear 63°F17°C 58°F14°C 84% SSE 7 mphSSE 11 kph 10.0 miles16.1 km 30.27 in1025 hPa 0.00 in0.00 mm --
00:53 00:53 Partly Cloudy Partly Cloudy 63°F17°C 58°F14°C 84% SSE 8 mphSSE 13 kph 10.0 miles16.1 km 30.27 in1025 hPa 0.00 in0.00 mm --